Change the Weather History Date:

Saturday, October 11, 2014

  Actual Average Record
Temperature  
Mean Temperature 62 °F -  
Max Temperature 67 °F 63 °F 78 °F (1985)
Min Temperature 58 °F 42 °F 27 °F (1972)
Degree Days  
Heating Degree Days 2    
Growing Degree Days 12 (Base 50)    
Moisture  
Dew Point 59 °F    
Average Humidity 88    
Maximum Humidity 100    
Minimum Humidity 69    
Precipitation  
Precipitation 0.04 in - - ()
Sea Level Pressure  
Sea Level Pressure 30.08 in    
Wind  
Wind Speed 3 mph (West)    
Max Wind Speed 16 mph    
Max Gust Speed 22 mph    
Visibility 8 miles    
Events Fog , Rain    
Averages and records for this station are not official NWS values.
T = Trace of Precipitation, MM = Missing Value Source: NWS Daily Summary

Daily Weather History Graph

Daily Weather History Graph

Search for Another Location

Airport or City:

Trip Planner

Search our weather history database for the weather conditions in past years. The results will help you decide how hot, cold, wet, or windy it might be!

Date:

Astronomy

Oct. 11, 2014 Rise Set
Actual Time 7:29 AM EDT 6:54 PM EDT
Civil Twilight 7:03 AM EDT 7:20 PM EDT
Nautical Twilight 6:33 AM EDT 7:50 PM EDT
Astronomical Twilight 6:03 AM EDT 8:20 PM EDT
Moon 9:26 PM EDT (10/11) 10:47 AM EDT (10/11)
Length of Visible Light 12h 17m
Length of Day
11h 25m
Waning Gibbous, 87% of the Moon is Illuminated
Oct 11
Waning Gibbous
Oct 15
Last Quarter
Oct 23
New
Oct 30
First Quarter
Nov 6
Full

Hourly Weather History & Observations

Time (EDT) Temp. Dew Point Humidity Pressure Visibility Wind Dir Wind Speed Gust Speed Precip Events Conditions
12:15 AM 59.4 °F 59.2 °F 99% 30.07 in 0.2 mi Calm Calm - N/A Fog Fog
12:35 AM 59.5 °F 59.4 °F 99% 30.06 in 0.2 mi Calm Calm - N/A Fog Fog
12:55 AM 59.7 °F 59.5 °F 99% 30.06 in 0.5 mi Calm Calm - N/A Fog Fog
1:15 AM 60.4 °F 60.3 °F 99% 30.05 in 5.0 mi Calm Calm - N/A   Overcast
1:35 AM 60.6 °F 60.4 °F 99% 30.05 in 1.5 mi Calm Calm - N/A   Overcast
1:55 AM 62.4 °F 62.1 °F 99% 30.05 in 10.0 mi ESE 3.5 mph - N/A   Overcast
2:15 AM 62.6 °F 62.6 °F 100% 30.05 in 5.0 mi SSW 3.5 mph - N/A Rain Light Rain
2:35 AM 63.3 °F 62.4 °F 97% 30.04 in 10.0 mi Calm Calm - N/A   Mostly Cloudy
2:55 AM 63.0 °F 61.5 °F 95% 30.03 in 10.0 mi Calm Calm - N/A   Overcast
3:15 AM 61.7 °F 61.0 °F 97% 30.03 in 7.0 mi Calm Calm - N/A   Overcast
3:35 AM 62.4 °F 61.3 °F 96% 30.02 in 10.0 mi Calm Calm - N/A   Mostly Cloudy
3:55 AM 62.2 °F 61.7 °F 98% 30.03 in 7.0 mi Calm Calm - N/A   Mostly Cloudy
4:15 AM 63.1 °F 61.0 °F 93% 30.02 in 10.0 mi Calm Calm - N/A Rain Rain
4:35 AM 61.3 °F 60.8 °F 98% 30.02 in 3.0 mi SE 3.5 mph - N/A   Scattered Clouds
4:55 AM 61.2 °F 60.8 °F 99% 30.02 in 2.5 mi Calm Calm - N/A   Mostly Cloudy
5:15 AM 61.3 °F 61.0 °F 99% 30.02 in 4.0 mi Calm Calm - N/A   Overcast
5:35 AM 61.7 °F 61.2 °F 98% 30.02 in 7.0 mi Calm Calm - N/A   Overcast
5:55 AM 63.0 °F 60.4 °F 91% 30.02 in 7.0 mi West 8.1 mph - N/A   Light Drizzle
6:15 AM 62.2 °F 60.8 °F 95% 30.03 in 4.0 mi WSW 4.6 mph - N/A   Heavy Drizzle
6:35 AM 61.9 °F 60.8 °F 96% 30.04 in 7.0 mi Calm Calm - N/A   Drizzle
6:55 AM 62.2 °F 60.8 °F 95% 30.04 in 10.0 mi Calm Calm - N/A   Overcast
7:15 AM 63.1 °F 59.9 °F 89% 30.04 in 10.0 mi WSW 3.5 mph - N/A   Overcast
7:35 AM 64.2 °F 59.5 °F 85% 30.04 in 10.0 mi WSW 4.6 mph - N/A   Overcast
7:55 AM 64.8 °F 59.9 °F 84% 30.05 in 10.0 mi West 8.1 mph - N/A   Overcast
8:15 AM 65.1 °F 60.1 °F 84% 30.06 in 10.0 mi West 3.5 mph - N/A   Overcast
8:35 AM 65.5 °F 60.3 °F 83% 30.07 in 10.0 mi West 6.9 mph - N/A   Overcast
8:55 AM 66.2 °F 59.0 °F 78% 30.07 in 10.0 mi West 11.5 mph 19.6 mph N/A   Overcast
9:15 AM 66.2 °F 59.4 °F 79% 30.07 in 10.0 mi West 11.5 mph 19.6 mph N/A   Overcast
9:35 AM 66.2 °F 59.7 °F 80% 30.08 in 10.0 mi West 16.1 mph 21.9 mph N/A   Overcast
9:55 AM 66.2 °F 59.4 °F 79% 30.08 in 10.0 mi West 16.1 mph - N/A   Overcast
10:15 AM 66.4 °F 56.3 °F 70% 30.09 in 10.0 mi West 15.0 mph 18.4 mph N/A   Overcast
10:35 AM 66.0 °F 56.3 °F 71% 30.09 in 10.0 mi West 9.2 mph - N/A   Overcast
10:55 AM 66.6 °F 56.5 °F 70% 30.09 in 10.0 mi West 10.4 mph - N/A   Mostly Cloudy
11:15 AM 67.1 °F 56.5 °F 69% 30.10 in 10.0 mi West 8.1 mph - N/A   Mostly Cloudy
11:35 AM 66.4 °F 56.8 °F 71% 30.09 in 7.0 mi WNW 8.1 mph - N/A   Overcast
11:55 AM 66.6 °F 57.6 °F 73% 30.10 in 10.0 mi West 11.5 mph - N/A   Overcast
12:15 PM 65.3 °F 57.7 °F 76% 30.11 in 10.0 mi West 8.1 mph - N/A Rain Light Rain
12:35 PM 64.4 °F 58.3 °F 80% 30.11 in 10.0 mi West 10.4 mph - N/A Rain Light Rain
12:55 PM 64.2 °F 58.6 °F 82% 30.10 in 7.0 mi West 5.8 mph - N/A Rain Rain
1:15 PM 63.5 °F 60.6 °F 90% 30.11 in 10.0 mi West 4.6 mph - 0.01 in Rain Rain
1:35 PM 64.2 °F 59.0 °F 83% 30.10 in 10.0 mi Calm Calm - 0.01 in Rain Light Rain
1:55 PM 63.9 °F 62.4 °F 95% 30.09 in 10.0 mi Calm Calm - 0.01 in Rain Light Rain
2:15 PM 65.3 °F 61.7 °F 88% 30.09 in 10.0 mi Calm Calm - N/A   Overcast
2:35 PM 65.7 °F 58.1 °F 77% 30.08 in 10.0 mi West 5.8 mph - N/A   Overcast
2:55 PM 65.7 °F 57.7 °F 76% 30.07 in 10.0 mi West 10.4 mph 17.3 mph N/A   Overcast
3:15 PM 66.2 °F 57.4 °F 73% 30.07 in 10.0 mi WNW 8.1 mph - N/A   Overcast
3:35 PM 66.2 °F 57.4 °F 73% 30.07 in 10.0 mi WNW 6.9 mph - N/A   Overcast
3:55 PM 66.6 °F 57.4 °F 72% 30.07 in 10.0 mi WNW 9.2 mph - N/A   Overcast
4:15 PM 66.2 °F 57.7 °F 74% 30.08 in 10.0 mi WNW 9.2 mph - N/A   Overcast
4:35 PM 63.1 °F 61.2 °F 93% 30.09 in 7.0 mi North 3.5 mph - 0.03 in Rain Light Rain
4:55 PM 63.1 °F 61.2 °F 93% 30.09 in 10.0 mi Calm Calm - 0.03 in   Overcast
5:15 PM 63.9 °F 59.0 °F 84% 30.09 in 10.0 mi NW 4.6 mph - N/A   Overcast
5:35 PM 64.2 °F 57.4 °F 78% 30.09 in 10.0 mi NW 5.8 mph 9.2 mph N/A   Overcast
5:55 PM 63.3 °F 57.0 °F 80% 30.09 in 10.0 mi NW 4.6 mph - N/A   Overcast
6:15 PM 62.6 °F 57.6 °F 84% 30.09 in 10.0 mi Calm Calm - N/A   Overcast
6:35 PM 62.8 °F 56.3 °F 79% 30.09 in 10.0 mi WNW 5.8 mph - N/A   Overcast
6:55 PM 62.6 °F 55.9 °F 79% 30.10 in 10.0 mi Calm Calm - N/A   Overcast
7:15 PM 61.9 °F 56.3 °F 82% 30.11 in 10.0 mi Calm Calm - N/A   Overcast
7:35 PM 61.7 °F 56.3 °F 82% 30.12 in 10.0 mi Calm Calm - N/A   Overcast
7:55 PM 61.0 °F 57.7 °F 89% 30.11 in 10.0 mi Calm Calm - N/A   Mostly Cloudy
8:15 PM 60.8 °F 57.7 °F 90% 30.12 in 10.0 mi NNW 3.5 mph - N/A   Mostly Cloudy
8:35 PM 60.3 °F 58.3 °F 93% 30.12 in 10.0 mi Calm Calm - N/A   Mostly Cloudy
8:55 PM 61.0 °F 58.1 °F 90% 30.13 in 10.0 mi Calm Calm - N/A   Mostly Cloudy
9:15 PM 60.6 °F 57.7 °F 90% 30.13 in 10.0 mi Calm Calm - N/A   Overcast
9:35 PM 59.2 °F 57.7 °F 95% 30.13 in 10.0 mi Calm Calm - N/A   Overcast
9:55 PM 59.7 °F 58.1 °F 94% 30.13 in 10.0 mi NE 3.5 mph - N/A   Overcast
10:15 PM 59.2 °F 58.1 °F 96% 30.15 in 10.0 mi Calm Calm - N/A   Overcast
10:35 PM 59.0 °F 58.1 °F 97% 30.15 in 10.0 mi Calm Calm - N/A   Overcast
10:55 PM 59.2 °F 58.3 °F 97% 30.15 in 10.0 mi Calm Calm - N/A   Overcast
11:15 PM 59.4 °F 58.1 °F 96% 30.15 in 10.0 mi Calm Calm - N/A   Overcast
11:35 PM 58.6 °F 57.7 °F 97% 30.15 in 1.2 mi Calm Calm - N/A   Overcast
11:55 PM 58.6 °F 58.1 °F 98% 30.15 in 10.0 mi Calm Calm - N/A   Overcast